STARLINK-32632, 62262

Orbit data source: Space-Track

STARLINK-32632, 62262 is a payload satellite owned by SpaceX/Seattle (US) in LEO that was launched on Thu, 05 Dec 2024 UTC via an FALCON 9 launch vehicle from the Air Force Western Test Range (AFWTR). Payload-class satellites include a variety of spacecraft equipped with specific instruments for various scientific and technological missions. These include communications satellites like Starlink; space stations such as the ISS; scientific satellites like the Hubble; Earth observation satellites from companies like Planet Labs, Umbra, and HawkEye 360; GPS; miniature CubeSats for education and research; and military/defense satellites.

Loading next visibility...
Identifier
62262, 2024-231V
Orbit
LEO
Country
Flag of USUS
Related business
Manufacturer
SpaceX/Seattle
Mission
Operational Commercial Communications
Bus & Motor
STARLINK V2M, Unknown motor
Mass
730 kg wet, ~700 kg dry
Launch date (UTC)
2024-12-05 (11 months ago)
Launch vehicle
FALCON 9
Launch site
Air Force Western Test Range (AFWTR)
Object type
Payload
Rocket body
Debris
Shape & HBR
Box + 2 Pan, 17.7 m
Radar Cross Section
33.884 m², Large (>1 m²)

Expand to show TLE details & history
Last TLE update: 1 day ago

TLE from 1 day ago
0 STARLINK-32632
1 62262U 24231V   25310.74562439  .00034644  00000-0  11759-2 0  9997
2 62262  53.1607  70.7912 0001245  69.0806 291.0328 15.30213839 52949
Epoch: 2025-11-06T17:53Z
TLE epoch observation values (Epoch: 2025-11-06T17:53:41.947Z)
Latitude
-0.00001°
Longitude
116.16689°
Altitude
475.767 km
Speed
7.629 km/s
True Right ascension
04h 43m 09s
True Declination
0° 00' 00"
Sunlit
Object was in full shadow at epoch
Visualization orbit readout
Latitude
Unknown
Longitude
Unknown
Altitude
Unknown
Speed
Unknown
Apparent Right ascension
Unknown
Apparent Declination
Unknown
Sunlit
N/A
Visualization observer readout
Local Sidereal Time
15:52:56
Azimuth
Unknown
Elevation
Unknown
Doppler factor
Unknown
Orbital elements
Apogee altitude
476.283 km
Perigee altitude
474.577 km
Semi-major axis
6,853.567 km
Eccentricity
0.00012
Inclination
53.1607°
RAAN
70.7912°
Arg. of periapsis
69.0806°
True anomaly
291.01948°
Mean anomaly
291.0328°
Eccentric anomaly
291.02614°
Mean motion
3.82532 °/min
Orbital period
94.11 mins
BSTAR
0.0011759
Loading maneuver chart data...
Computing Atmospheric mass density...
Loading historical data...
Loading historical data...
Loading historical data...
Loading historical data...
Loading historical data...
Loading historical data...
Loading historical data...

Documentation

Showing up to 5 results
|